[[{"header":{"parameterUnit":"m.s-1","parameterCategory":1,"la1":30.2991,"la2":30.254,"lo1":-89.0895,"lo2":-89.0444,"dx":0.0017,"dy":0.0017,"nx":28,"ny":28,"refTime":"2023-01-10T15:00:00:Z","depth":0,"parameterNumber":2,"parameterNumberName":"U-component_of_WINDS"},"data":[0,0,0,0,0,0,0,0,0,0,0,0,0,0,0,0,0,0,0,0,0,0,0,0,0,0,0,0,0,0,0,0,0,0,0,0,0,0,0,0,0,0,0,0,0,0,0,0,0,0,0,0,0,0,0,0,0,0,1.9229,1.923,0,1.9367,1.9368,1.937,1.9388,1.9387,1.9386,1.9385,1.953,1.9535,1.954,0,0,0,0,0,0,0,0,0,0,0,0,0,1.8985,1.8989,1.9228,1.923,1.9232,1.9367,1.9368,1.937,1.9389,1.9387,1.9385,1.9384,1.9528,1.9534,1.954,0,0,0,0,0,0,0,0,0,0,0,0,0,1.9104,1.8991,1.9228,1.9257,1.9261,1.9366,1.9369,1.9371,1.9389,1.9387,1.9385,1.9383,1.9526,1.9534,1.9541,1.9628,0,0,1.9565,1.9568,0,0,0,0,0,0,0,0,1.9097,1.9113,1.9251,1.9255,1.926,1.9358,1.9336,1.9457,1.9389,1.9341,1.9384,1.9382,1.9475,1.9486,1.9517,1.9635,1.9641,1.9565,1.957,1.9573,1.9575,0,0,0,0,0,0,0,1.9089,1.9107,1.9283,1.9253,1.9259,1.9265,1.928,1.9359,1.9417,1.9345,1.9346,1.9362,1.9477,1.9509,1.952,1.9643,1.9565,1.9572,1.9577,1.958,1.9842,1.9844,0,0,0,0,0,0,1.9075,1.91,1.9279,1.9287,1.9172,1.9271,1.9287,1.9329,1.9416,1.9428,1.9364,1.9363,1.9497,1.9511,1.9526,1.9634,1.9573,1.958,1.9585,1.9839,1.9842,1.9845,0,0,0,0,0,0,1.9069,1.909,1.9273,1.9194,1.9218,1.9277,1.9324,1.9333,1.9365,1.9431,1.9442,1.9386,1.9496,1.9515,1.9603,1.964,1.9584,1.9591,1.9837,1.984,1.9844,1.9851,0,0,0,0,0,0,1.9062,1.9088,1.9121,1.9195,1.9222,1.9347,1.9326,1.9337,1.9378,1.9378,1.9455,1.9465,1.9496,1.9591,1.961,1.9649,1.9597,1.9834,1.9838,1.9842,1.9848,1.9855,1.9861,0,0,0,0,0,1.9053,1.9118,1.9122,1.9144,1.9264,1.9349,1.9364,1.9397,1.9381,1.9415,1.9457,1.9463,1.9632,1.96,1.9622,1.9663,1.9831,1.9837,1.9842,1.9845,1.9854,1.986,0,0,0,0,0,0,1.9047,1.9128,1.9134,1.9224,1.9279,1.9352,1.9395,1.9405,1.9467,1.9464,1.9504,1.9521,1.9607,1.9644,1.9607,1.9753,1.9731,1.974,1.9726,1.9734,1.974,1.973,1.9603,0,0,0,0,0,1.9056,1.9117,1.9185,1.9258,1.9285,1.9335,1.9374,1.9394,1.9454,1.9478,1.9526,1.9585,1.9652,1.9695,1.976,1.9854,1.9872,1.9893,1.9899,1.9904,1.9912,1.9967,1.9978,1.9862,1.9862,1.9862,0,0,1.9076,1.9127,1.9164,1.9258,1.9303,1.9367,1.9355,1.9423,1.9471,1.9489,1.9574,1.9612,1.9681,1.9772,1.9815,1.9806,1.9948,1.9911,1.9914,1.992,1.9973,1.9984,1.9994,1.9866,1.9865,1.9865,0,0,1.9144,1.9188,1.9255,1.93,1.9369,1.9402,1.9418,1.949,1.9516,1.9602,1.9617,1.9676,1.9789,1.9838,1.9877,1.9966,1.9974,1.9986,2.0018,2.0071,2.008,2.0088,2.0121,2.0132,1.9994,1.9994,1.9994,0,1.9159,1.9255,1.9288,1.9355,1.9397,1.9415,1.9484,1.9527,1.9614,1.9643,1.9631,1.9775,1.9822,1.9926,1.9948,1.9979,2.0,1.9977,2.0076,2.0084,2.0093,2.0124,2.0136,1.9995,1.9995,1.9995,1.9994,0,1.9272,1.9338,1.9384,1.9466,1.9513,1.9581,1.9626,1.967,1.9687,1.9722,1.9811,1.9869,1.9946,1.9972,1.999,2.008,2.0072,2.0067,2.0046,2.0104,2.0135,2.0147,1.9996,1.9996,1.9996,1.9995,0,0,1.9339,1.944,1.9456,1.9494,1.9572,1.9625,1.9695,1.977,1.9807,1.9867,1.9928,2.0024,2.0021,2.0066,2.0089,2.0135,2.0203,2.0125,2.0127,2.0138,2.0308,2.0311,2.0324,2.0209,2.0211,2.0213,2.0302,0,1.9417,1.954,1.9572,1.9677,1.974,1.9759,1.982,1.9875,1.991,1.997,2.0009,2.0077,2.0067,2.0095,2.0141,2.0185,2.0238,2.0179,2.0267,2.027,2.025,2.034,2.0344,2.0425,2.0314,2.0316,2.0318,0,1.9524,1.9585,1.9696,1.9768,1.9795,1.9849,1.9922,1.9978,2.0042,2.0064,2.0115,2.0134,2.021,2.0184,2.0289,2.0248,2.0287,2.0314,2.0318,2.0328,2.0298,2.0354,2.0451,2.0464,2.0337,2.0335,2.0334,0,1.9563,1.9674,1.9755,1.9787,1.9872,1.991,1.9947,2.0009,2.0053,2.0117,2.0146,2.0218,2.0257,2.0313,2.0352,2.033,2.0455,2.0432,2.0477,2.0476,2.0503,2.0501,2.0609,2.0527,2.0526,2.0526,2.0526,0,1.9646,1.9714,1.9774,1.9824,1.9901,1.9939,2.0014,2.0053,2.0108,2.0167,2.0188,2.0244,2.0292,2.0354,2.0385,2.0469,2.0486,2.0508,2.0516,2.0507,2.0504,2.0533,2.0528,2.0529,2.0529,2.0528,2.0527,0,1.9703,1.9745,1.9836,1.9909,1.9929,1.9983,2.0047,2.0097,2.0133,2.0208,2.0228,2.0285,2.036,2.0404,2.0499,2.052,2.0613,2.0618,2.0591,2.0594,2.0638,2.0633,2.0769,2.0789,2.0692,2.0693,2.0693,0,1.9754,1.9806,1.9885,1.9926,1.9964,2.0029,2.0074,2.0114,2.016,2.0238,2.0279,2.0355,2.0418,2.0537,2.0588,2.0661,2.0669,2.0711,2.068,2.067,2.0671,2.0668,2.0674,2.0717,2.0717,2.0718,2.0719,0,1.984,1.9859,1.9921,1.9993,2.0045,2.0103,2.0161,2.0194,2.0244,2.0294,2.0371,2.042,2.0517,2.0593,2.067,2.0711,2.0724,2.0728,2.0743,2.0734,2.0717,2.0728,2.0606,2.0725,2.0724,2.0724,2.0724,2.0723,1.9896,1.9944,2.0008,2.0078,2.0125,2.0179,2.0231,2.0273,2.0337,2.0419,2.0439,2.052,2.0585,2.0691,2.0733,2.0798,2.0791,2.0812,2.0817,2.0822,2.0824,2.0706,2.0812,2.0812,2.0812,2.0812,2.0812,0,1.9984,2.0026,2.009,2.017,2.0226,2.0233,2.0298,2.0344,2.0414,2.0473,2.0535,2.0624,2.0698,2.0755,2.0832,2.0873,2.0881,2.0892,2.089,2.0899,2.0825,2.0805,2.0884,2.0884,2.0884,2.0884,2.0884,2.0884,2.0036,2.0118,2.0145,2.0252,2.0295,2.0373,2.041,2.0461,2.0508,2.0606,2.0667,2.0704,2.0763,2.0845,2.0914,2.0929,2.0956,2.0966,2.0983,2.0912,2.0904,2.0897,2.0878,2.0972,2.0972,2.1052,2.1053,2.1053]},{"header":{"parameterUnit":"m.s-1","parameterCategory":1,"la1":30.2991,"la2":30.254,"lo1":-89.0895,"lo2":-89.0444,"dx":0.0017,"dy":0.0017,"nx":28,"ny":28,"refTime":"2023-01-10T15:00:00:Z","depth":0,"parameterNumber":3,"parameterNumberName":"V-component_of_WINDS"},"data":[0,0,0,0,0,0,0,0,0,0,0,0,0,0,0,0,0,0,0,0,0,0,0,0,0,0,0,0,0,0,0,0,0,0,0,0,0,0,0,0,0,0,0,0,0,0,0,0,0,0,0,0,0,0,0,0,0,0,3.7606,3.7608,0,3.772,3.7721,3.7723,3.7732,3.7731,3.773,3.7729,3.7844,3.7848,3.7852,0,0,0,0,0,0,0,0,0,0,0,0,0,3.7397,3.7401,3.7606,3.7608,3.7609,3.772,3.7721,3.7723,3.7732,3.7731,3.7729,3.7728,3.7842,3.7847,3.7852,0,0,0,0,0,0,0,0,0,0,0,0,0,3.7497,3.7402,3.7606,3.7627,3.763,3.7719,3.7721,3.7723,3.7733,3.7731,3.7729,3.7727,3.7841,3.7847,3.7853,3.7928,0,0,3.7872,3.7875,0,0,0,0,0,0,0,0,3.7491,3.7505,3.7623,3.7626,3.763,3.771,3.769,3.7792,3.7733,3.7694,3.7729,3.7726,3.7801,3.781,3.7835,3.7934,3.7939,3.7873,3.7877,3.7879,3.7881,0,0,0,0,0,0,0,3.7484,3.75,3.7651,3.7624,3.7629,3.7631,3.7643,3.7709,3.7756,3.7697,3.7698,3.7711,3.7802,3.7829,3.7838,3.794,3.7873,3.7878,3.7882,3.7885,3.8108,3.811,0,0,0,0,0,0,3.7473,3.7494,3.7648,3.7655,3.7554,3.7636,3.765,3.7686,3.7755,3.7764,3.7713,3.7711,3.7819,3.7831,3.7842,3.7937,3.7879,3.7885,3.7889,3.8106,3.8108,3.8111,0,0,0,0,0,0,3.7469,3.7487,3.7643,3.7575,3.7595,3.7642,3.7682,3.7689,3.7716,3.7767,3.7776,3.7732,3.7818,3.7833,3.7907,3.7941,3.7888,3.7894,3.8103,3.8106,3.8109,3.8125,0,0,0,0,0,0,3.7463,3.7485,3.7515,3.7575,3.7598,3.7707,3.7684,3.7693,3.7727,3.7727,3.7788,3.7796,3.7818,3.7898,3.7914,3.7948,3.7899,3.81,3.8105,3.8108,3.8122,3.8128,3.8134,0,0,0,0,0,3.7455,3.7514,3.7516,3.7535,3.7636,3.7709,3.7722,3.7747,3.773,3.776,3.7793,3.7794,3.7934,3.7905,3.7923,3.796,3.8098,3.8103,3.8108,3.8119,3.8127,3.8134,0,0,0,0,0,0,3.7456,3.7522,3.7525,3.7605,3.7651,3.771,3.7749,3.7754,3.7805,3.7802,3.783,3.7844,3.7917,3.7946,3.7913,3.8038,3.8014,3.8023,3.8017,3.8025,3.8031,3.8023,3.7904,0,0,0,0,0,3.7465,3.7519,3.7574,3.7639,3.7662,3.7701,3.7734,3.7749,3.7797,3.7817,3.7855,3.7902,3.7956,3.7992,3.8045,3.8125,3.8139,3.816,3.8166,3.817,3.8178,3.8224,3.8234,3.8126,3.8126,3.8126,0,0,3.7485,3.7528,3.756,3.764,3.7678,3.7733,3.7718,3.7776,3.7817,3.7825,3.7899,3.7928,3.7982,3.806,3.8096,3.8086,3.8211,3.8177,3.818,3.8185,3.823,3.8241,3.825,3.813,3.8129,3.8129,0,0,3.755,3.7587,3.7647,3.7685,3.7742,3.7768,3.7782,3.784,3.786,3.7934,3.7941,3.799,3.8083,3.8122,3.8154,3.8234,3.8237,3.825,3.8283,3.8328,3.8336,3.8344,3.8374,3.8384,3.8257,3.8257,3.8257,0,3.7568,3.7652,3.7676,3.7736,3.7771,3.7781,3.7842,3.7877,3.7948,3.7972,3.796,3.8078,3.8115,3.8203,3.8222,3.8247,3.8265,3.8244,3.8333,3.8341,3.8348,3.8378,3.8389,3.8258,3.8258,3.8258,3.8258,0,3.7671,3.7729,3.777,3.784,3.788,3.7939,3.7973,3.801,3.8021,3.8049,3.8124,3.8168,3.8231,3.8253,3.8264,3.8343,3.8335,3.8327,3.8305,3.836,3.8388,3.8399,3.826,3.826,3.826,3.8259,0,0,3.7741,3.7824,3.7839,3.7871,3.7935,3.798,3.8039,3.8102,3.8134,3.8182,3.8234,3.8312,3.8306,3.8342,3.8358,3.8397,3.8459,3.8385,3.8386,3.8399,3.8551,3.8558,3.857,3.8461,3.8463,3.8465,3.8547,0,3.7815,3.7923,3.7947,3.804,3.8095,3.8105,3.8157,3.8202,3.8228,3.8278,3.8307,3.8364,3.835,3.8372,3.8411,3.8443,3.8491,3.8438,3.851,3.8513,3.8499,3.8584,3.8592,3.8667,3.8558,3.8559,3.8561,0,3.7916,3.7968,3.8067,3.8124,3.8148,3.8195,3.8254,3.8301,3.8352,3.8369,3.8409,3.8421,3.8484,3.8457,3.8544,3.8508,3.8539,3.8559,3.8562,3.8572,3.8542,3.8598,3.8691,3.8703,3.8578,3.8576,3.8575,0,3.7959,3.8054,3.8125,3.8152,3.8221,3.8254,3.8284,3.8333,3.8369,3.842,3.8444,3.8501,3.8534,3.8578,3.8605,3.8582,3.8691,3.8665,3.8707,3.8707,3.8731,3.873,3.8833,3.8747,3.8747,3.8747,3.8747,0,3.8041,3.8101,3.8146,3.8191,3.8259,3.8285,3.8352,3.8382,3.8425,3.8476,3.8487,3.8534,3.8565,3.8617,3.8638,3.8708,3.8721,3.8737,3.8743,3.8738,3.8736,3.876,3.8756,3.875,3.8749,3.8749,3.8748,0,3.8102,3.8134,3.8213,3.8272,3.8288,3.8336,3.8386,3.8429,3.8456,3.8519,3.8536,3.8577,3.8638,3.8669,3.8744,3.8759,3.8839,3.8839,3.8822,3.8825,3.8865,3.8862,3.8989,3.9008,3.8908,3.8909,3.8909,0,3.8153,3.82,3.8263,3.8298,3.8329,3.8385,3.8422,3.845,3.8488,3.855,3.8586,3.8648,3.8699,3.8796,3.8833,3.8891,3.8895,3.8935,3.8903,3.8897,3.8898,3.8896,3.8901,3.8941,3.8942,3.8943,3.8944,0,3.824,3.8254,3.8308,3.8367,3.8412,3.846,3.8507,3.8535,3.857,3.8612,3.8676,3.8715,3.8793,3.8854,3.8915,3.8945,3.8951,3.8953,3.8966,3.8963,3.8952,3.896,3.884,3.8951,3.895,3.8949,3.8949,3.8949,3.8299,3.8342,3.8394,3.8454,3.8492,3.8537,3.8581,3.8613,3.8667,3.8733,3.8745,3.8813,3.8862,3.8945,3.8977,3.903,3.9021,3.9039,3.9045,3.9049,3.9053,3.8941,3.904,3.904,3.904,3.904,3.904,0,3.8389,3.8423,3.8478,3.8544,3.8591,3.8592,3.8645,3.8684,3.8743,3.879,3.884,3.8913,3.8972,3.9014,3.9075,3.9109,3.9113,3.9124,3.9123,3.913,3.9056,3.9039,3.912,3.912,3.912,3.912,3.912,3.912,3.8442,3.8515,3.8535,3.8628,3.8661,3.8728,3.8758,3.8799,3.8836,3.8918,3.8968,3.8994,3.9039,3.9103,3.9158,3.9168,3.9191,3.9203,3.9214,3.9144,3.9135,3.9127,3.9112,3.9207,3.9207,3.9284,3.9285,3.9285]}]]